Weather History for Dumas, TX

Change the Weather History Date:

Wednesday, April 18, 2012

  Actual Average (KBGD) Record (KBGD)
Temperature  
Mean Temperature 63 °F 59 °F  
Max Temperature 82 °F 73 °F 94 °F (1987)
Min Temperature 44 °F 46 °F 27 °F (1953)
Degree Days  
Heating Degree Days 2 7  
Month to date heating degree days 160  
Since 1 July heating degree days 3637  
Cooling Degree Days 0 1  
Month to date cooling degree days 15  
Year to date cooling degree days 22  
Growing Degree Days 13 (Base 50)    
Moisture  
Dew Point 31 °F    
Average Humidity 32    
Maximum Humidity 66    
Minimum Humidity 11    
Precipitation  
Precipitation 0.00 in 0.06 in 0.73 in (1981)
Month to date precipitation 1.01  
Year to date precipitation 3.63  
Snow  
Snow 0.00 in - T in (1970)
Month to date snowfall  
Since 1 July snowfall  
Snow Depth -    
Sea Level Pressure  
Sea Level Pressure 29.99 in    
Wind  
Wind Speed 12 mph (SSW)    
Max Wind Speed 20 mph    
Max Gust Speed 26 mph    
Visibility 10 miles    
Events Rain    
T = Trace of Precipitation, MM = Missing Value Source: NWS Daily Summary

Daily Weather History Graph

Daily Weather History Graph

Search for Another Location

Airport:

Trip Planner

Search our weather history database for the weather conditions in past years. The results will help you decide how hot, cold, wet, or windy it might be!

Date:

Astronomy

Apr. 18, 2012 Rise Set
Actual Time 7:10 AM CDT 8:24 PM CDT
Civil Twilight 6:43 AM CDT 8:51 PM CDT
Nautical Twilight 6:12 AM CDT 9:22 PM CDT
Astronomical Twilight 5:39 AM CDT 9:55 PM CDT
Moon 5:32 AM CDT (4/18) 6:20 PM CDT (4/18)
Length of Visible Light 14h 07m
Length of Day
13h 13m
Waning Crescent, 6% of the Moon is Illuminated
Apr 18
Waning Crescent
Apr 21
New
Apr 29
First Quarter
May 5
Full
May 12
Last Quarter

Hourly Weather History & Observations

Time (CDT) Temp. Windchill Dew Point Humidity Pressure Visibility Wind Dir Wind Speed Gust Speed Precip Events Conditions
12:15 AM 57.2 °F - 35.6 °F 44% 30.07 in 10.0 mi South 16.1 mph - N/A   Clear
12:35 AM 57.2 °F - 35.6 °F 44% 30.07 in 7.0 mi South 15.0 mph - N/A   Clear
12:55 AM 57.2 °F - 35.6 °F 44% 30.07 in 7.0 mi South 15.0 mph - N/A Rain Light Rain
1:15 AM 59.0 °F - 35.6 °F 42% 30.07 in 10.0 mi South 19.6 mph 25.3 mph N/A   Clear
1:35 AM 57.2 °F - 35.6 °F 44% 30.07 in 10.0 mi South 16.1 mph - N/A   Clear
1:55 AM 55.4 °F - 35.6 °F 47% 30.07 in 10.0 mi South 16.1 mph - N/A   Clear
2:15 AM 55.4 °F - 35.6 °F 47% 30.07 in 10.0 mi South 15.0 mph - N/A   Clear
2:35 AM 55.4 °F - 35.6 °F 47% 30.07 in 10.0 mi SSW 13.8 mph - N/A   Clear
2:55 AM 55.4 °F - 33.8 °F 44% 30.07 in 10.0 mi SSW 13.8 mph - N/A   Clear
3:15 AM 55.4 °F - 33.8 °F 44% 30.07 in 10.0 mi SSW 15.0 mph - N/A   Clear
3:35 AM 55.4 °F - 33.8 °F 44% 30.07 in 10.0 mi SSW 13.8 mph - N/A   Clear
3:55 AM 53.6 °F - 33.8 °F 47% 30.06 in 10.0 mi SSW 12.7 mph - N/A   Clear
4:35 AM 51.8 °F - 33.8 °F 50% 30.07 in 10.0 mi SSW 11.5 mph - N/A   Clear
4:55 AM 50.0 °F - 33.8 °F 54% 30.07 in 10.0 mi SSW 9.2 mph - N/A   Clear
5:15 AM 50.0 °F - 33.8 °F 54% 30.07 in 10.0 mi South 9.2 mph - N/A   Clear
5:35 AM 46.4 °F 42.9 °F 33.8 °F 62% 30.07 in 10.0 mi South 6.9 mph - N/A   Clear
5:55 AM 44.6 °F 41.4 °F 33.8 °F 66% 30.06 in 10.0 mi South 5.8 mph - N/A   Clear
6:15 AM 44.6 °F 40.7 °F 33.8 °F 66% 30.06 in 10.0 mi SSW 6.9 mph - N/A   Clear
6:35 AM 44.6 °F 42.2 °F 32.0 °F 61% 30.07 in 10.0 mi SSW 4.6 mph - N/A   Clear
6:55 AM 44.6 °F 41.4 °F 32.0 °F 61% 30.07 in 10.0 mi SSW 5.8 mph - N/A   Clear
7:15 AM 44.6 °F - 32.0 °F 61% 30.08 in 7.0 mi Calm Calm - N/A   Clear
7:35 AM 46.4 °F 41.9 °F 32.0 °F 57% 30.07 in 10.0 mi SSW 9.2 mph - N/A   Clear
7:55 AM 48.2 °F - 33.8 °F 58% 30.07 in 10.0 mi South 5.8 mph - N/A   Clear
8:15 AM 51.8 °F - 33.8 °F 50% 30.08 in 10.0 mi SE 4.6 mph - N/A   Clear
8:35 AM 55.4 °F - 33.8 °F 44% 30.08 in 10.0 mi SSW 3.5 mph - N/A   Clear
8:55 AM 59.0 °F - 32.0 °F 36% 30.08 in 10.0 mi SSW 8.1 mph - N/A   Clear
9:15 AM 62.6 °F - 32.0 °F 32% 30.08 in 10.0 mi SSW 13.8 mph - N/A   Clear
9:35 AM 62.6 °F - 32.0 °F 32% 30.08 in 10.0 mi SW 19.6 mph - N/A   Clear
9:55 AM 64.4 °F - 32.0 °F 30% 30.07 in 10.0 mi SW 18.4 mph 25.3 mph N/A   Clear
10:15 AM 64.4 °F - 32.0 °F 30% 30.07 in 10.0 mi SW 18.4 mph 23.0 mph N/A   Clear
10:35 AM 66.2 °F - 32.0 °F 28% 30.07 in 10.0 mi SW 17.3 mph 23.0 mph N/A   Clear
10:55 AM 68.0 °F - 32.0 °F 26% 30.06 in 10.0 mi SW 13.8 mph 21.9 mph N/A   Clear
11:15 AM 68.0 °F - 32.0 °F 26% 30.06 in 10.0 mi SW 15.0 mph - N/A   Clear
11:35 AM 69.8 °F - 32.0 °F 25% 30.05 in 10.0 mi SW 12.7 mph - N/A   Clear
11:55 AM 69.8 °F - 32.0 °F 25% 30.05 in 10.0 mi SSW 8.1 mph 17.3 mph N/A   Clear
12:15 PM 71.6 °F - 32.0 °F 23% 30.04 in 10.0 mi WSW 11.5 mph - N/A   Clear
12:35 PM 71.6 °F - 30.2 °F 22% 30.03 in 10.0 mi SW 8.1 mph - N/A   Clear
12:55 PM 71.6 °F - 30.2 °F 22% 30.02 in 10.0 mi SW 9.2 mph - N/A   Clear
1:15 PM 73.4 °F - 32.0 °F 22% 30.02 in 10.0 mi WSW 12.7 mph - N/A   Clear
1:35 PM 73.4 °F - 30.2 °F 20% 30.01 in 10.0 mi WSW 10.4 mph - N/A   Clear
1:55 PM 75.2 °F - 28.4 °F 18% 30.00 in 10.0 mi SW 5.8 mph - N/A   Clear
2:15 PM 77.0 °F - 26.6 °F 16% 29.99 in 10.0 mi SSW 9.2 mph 16.1 mph N/A   Clear
2:35 PM 78.8 °F - 26.6 °F 15% 29.98 in 10.0 mi West 8.1 mph 16.1 mph N/A   Clear
2:55 PM 78.8 °F - 26.6 °F 15% 29.98 in 10.0 mi SW 5.8 mph 17.3 mph N/A   Clear
3:15 PM 78.8 °F - 26.6 °F 15% 29.97 in 10.0 mi West 11.5 mph 16.1 mph N/A   Clear
3:35 PM 80.6 °F - 26.6 °F 14% 29.95 in 10.0 mi WSW 10.4 mph 18.4 mph N/A   Clear
3:55 PM 80.6 °F - 24.8 °F 13% 29.95 in 10.0 mi WSW 10.4 mph 18.4 mph N/A   Clear
4:15 PM 80.6 °F - 24.8 °F 13% 29.93 in 10.0 mi SW 9.2 mph 20.7 mph N/A   Clear
4:35 PM 80.6 °F - 23.0 °F 12% 29.92 in 10.0 mi WSW 15.0 mph 19.6 mph N/A   Clear
4:55 PM 82.4 °F - 24.8 °F 12% 29.91 in 10.0 mi SW 12.7 mph 24.2 mph N/A   Clear
5:15 PM 82.4 °F - 24.8 °F 12% 29.91 in 10.0 mi WSW 11.5 mph 21.9 mph N/A   Clear
5:35 PM 82.4 °F - 23.0 °F 11% 29.90 in 10.0 mi WSW 16.1 mph 21.9 mph N/A   Clear
5:55 PM 82.4 °F - 23.0 °F 11% 29.90 in 10.0 mi SW 19.6 mph 26.5 mph N/A   Clear
6:15 PM 82.4 °F - 23.0 °F 11% 29.89 in 10.0 mi SW 13.8 mph 23.0 mph N/A   Clear
6:35 PM 82.4 °F - 23.0 °F 11% 29.88 in 10.0 mi WSW 11.5 mph - N/A   Clear
6:55 PM 80.6 °F - 21.2 °F 11% 29.88 in 10.0 mi WSW 8.1 mph - N/A   Clear
7:15 PM 78.8 °F - 26.6 °F 15% 29.86 in 10.0 mi WSW 5.8 mph - N/A   Clear
7:35 PM 77.0 °F - 26.6 °F 16% 29.86 in 10.0 mi Calm Calm - N/A   Clear
7:55 PM 71.6 °F - 28.4 °F 20% 29.85 in 10.0 mi SE 5.8 mph - N/A   Clear
8:15 PM 71.6 °F - 28.4 °F 20% 29.84 in 10.0 mi East 5.8 mph - N/A   Clear
8:35 PM 71.6 °F - 28.4 °F 20% 29.84 in 10.0 mi ESE 6.9 mph - N/A   Clear
8:55 PM 68.0 °F - 28.4 °F 23% 29.84 in 10.0 mi ESE 8.1 mph - N/A   Clear
9:15 PM 68.0 °F - 28.4 °F 23% 29.84 in 10.0 mi SE 6.9 mph - N/A   Clear
9:35 PM 64.4 °F - 32.0 °F 30% 29.84 in 10.0 mi ESE 10.4 mph - N/A   Clear
9:55 PM 62.6 °F - 32.0 °F 32% 29.84 in 10.0 mi ESE 10.4 mph - N/A   Clear
10:15 PM 62.6 °F - 32.0 °F 32% 29.83 in 10.0 mi ESE 10.4 mph - N/A   Clear
10:35 PM 62.6 °F - 30.2 °F 30% 29.82 in 10.0 mi SE 10.4 mph - N/A   Clear
10:55 PM 62.6 °F - 30.2 °F 30% 29.82 in 10.0 mi ESE 9.2 mph - N/A   Clear
11:15 PM 60.8 °F - 32.0 °F 34% 29.82 in 10.0 mi SE 9.2 mph - N/A   Clear
11:35 PM 60.8 °F - 30.2 °F 31% 29.81 in 10.0 mi South 11.5 mph - N/A   Clear
11:55 PM 59.0 °F - 30.2 °F 34% 29.80 in 10.0 mi South 11.5 mph - N/A   Clear